Regional Weather Roundup
Issued by NWS

Home | Current Version | Previous Version | Text Only | Print | Product List | Glossary Off
Versions: 1 2 3 4 5 6 7 8 9 10 11 12 13 14 15 16 17 18 19 20 21 22 23 24 25 26 27 28 29 30 31 32 33 34 35 36 37 38 39 40 41 42 43 44 45 46 47 48 49

000
ASUS45 KSLC 281510
RWRUT

UTAH REGIONAL WEATHER ROUNDUP
NATIONAL WEATHER SERVICE SALT LAKE CITY UT
900 AM MDT SAT MAR 28 2015

UTZ001>011-023>025-281600-

NORTHERN UTAH

CITY           SKY/WX    TMP DP  RH WIND       PRES   REMARKS
BRIGHAM CITY   SUNNY     45  36  71 CALM      30.12R
HILL AFB       SUNNY     53  30  41 SE10      30.12R
LOGAN          SUNNY     42  36  79 CALM      30.10R
OGDEN          SUNNY     53  30  41 S10       30.10R
PROVO AIRPORT  MOSUNNY   50  34  53 CALM      30.18R
SALT LAKE CITY MOSUNNY   57  31  37 SE14      30.09S
VERNAL         SUNNY     51  26  37 NW3       30.19F
WENDOVER       SUNNY     50  30  46 CALM      30.13R
HEBER CITY     SUNNY     36  32  87 CALM      30.21S
WEST JORDAN    SUNNY     55  32  41 S17G24    30.12S

$$

UTZ012>022-026-027-281600-

SOUTHERN/CENTRAL UTAH

CITY           SKY/WX    TMP DP  RH WIND       PRES   REMARKS
BLANDING       SUNNY     54  31  41 CALM      30.32R
BRYCE CANYON   SUNNY     42  26  53 W7        30.33R
CEDAR CITY     SUNNY     50  27  40 CALM      30.24R
DELTA          SUNNY     49  30  48 E7        30.17S
HANKSVILLE     SUNNY     45  23  42 CALM      30.21R
MILFORD        SUNNY     47  28  47 S9        30.19S
MOAB/CYNLANDS  SUNNY     51  24  34 SE3       30.17S
PRICE          SUNNY     54  25  32 CALM      30.21R
ST GEORGE      SUNNY     54  27  35 CALM      30.20R
KANAB          SUNNY     46  28  49 N6        30.28R

$$

REGIONAL REPORTS     COLORADO/ARIZONA

CITY           SKY/WX    TMP DP  RH WIND       PRES   REMARKS
CRAIG, CO      SUNNY     40  31  70 CALM      30.23S
GRAND JUNCTION SUNNY     51  28  41 SE6       30.20S
RIFLE          SUNNY     42  28  57 W3        30.25S
MONTROSE       SUNNY     49  27  42 S3        30.27R
CORTEZ         SUNNY     47  27  45 NE5       30.27S
PAGE, AZ       SUNNY     59  24  26 N5        30.20R
GRAND CANYON   SUNNY     41  25  53 CALM      30.31S
KINGMAN        SUNNY     64  27  24 CALM      30.16R
FLAGSTAFF      SUNNY     46  28  49 CALM      30.33S

$$

REGIONAL REPORTS    NEVADA/IDAHO/WYOMING

CITY           SKY/WX    TMP DP  RH WIND       PRES   REMARKS
LAS VEGAS, NV  SUNNY     67  28  23 S8        30.05R
ELY            SUNNY     46  21  37 S9        30.24R
ELKO           SUNNY     47  29  49 SW5       30.21R
POCATELLO, ID  SUNNY     60  29  30 SW22G30   30.07R
BURLEY         SUNNY     59  30  33 W16       30.08R
EVANSTON, WY   MOSUNNY   46  27  47 SW14      30.19S
ROCK SPRINGS   SUNNY     47  27  45 NE3       30.18S
KEMMERER       SUNNY     41  32  70 CALM      30.18F

$$


USA.gov is the U.S. government's official web portal to all federal, state and local government web resources and services.